Vorticity
nan nan nan nan nan nan nan nan nan nan nan nan nan nan nan nan nan nan nan nan nan nan nan nan nan nan nan nan nan nan nan nan nan nan nan nan nan nan nan nan nan nan nan nan
nan 8 4 3 8 8 10 2 -4 7 17 11 14 6 11 0 -1 14 10 8 6 9 7 6 6 4 7 10 8 10 12 7 2 5 8 9 11 9 9 9 11 9 8 nan
nan 9 7 7 6 11 10 9 10 6 7 4 7 8 13 11 6 11 18 12 6 12 7 8 9 6 9 1 2 3 6 10 9 6 5 10 6 8 9 10 11 11 10 nan
nan 7 8 8 8 8 9 10 9 10 9 11 -1 12 6 9 18 6 8 15 12 11 6 9 6 7 3 2 7 7 6 7 5 12 10 10 8 9 8 10 7 9 11 nan
nan 8 9 11 8 7 7 7 8 11 5 8 9 11 7 11 2 4 14 6 20 17 5 9 8 7 4 7 8 10 7 4 16 14 10 5 10 9 10 11 9 6 8 nan
nan 10 12 8 8 6 10 10 10 13 11 9 16 5 9 12 5 6 9 3 4 18 17 7 11 8 4 5 7 9 9 10 15 8 10 8 10 9 10 8 10 11 11 nan
nan 8 11 8 11 13 11 9 10 7 13 13 5 8 14 4 6 3 10 6 5 10 14 12 9 5 9 12 10 11 10 13 10 7 8 10 8 9 10 10 11 11 9 nan
nan 9 9 9 10 15 9 9 5 5 4 8 10 10 13 8 7 14 13 4 -1 17 22 8 5 5 14 18 11 10 9 7 7 7 7 8 9 12 8 11 12 10 9 nan
nan 12 8 10 6 4 8 11 10 8 7 11 4 -0 14 20 13 10 13 20 5 17 17 7 5 8 11 11 11 8 6 7 8 8 7 7 8 10 9 9 10 9 9 nan
nan 7 6 16 15 8 13 3 4 15 17 7 12 11 11 10 8 5 3 28 31 15 8 6 7 8 11 9 8 8 9 8 10 10 9 10 9 7 8 8 9 9 9 nan
nan 6 7 9 16 10 3 11 9 14 7 8 10 12 22 10 8 9 10 25 17 10 6 7 9 8 8 9 8 7 8 11 11 9 8 7 9 9 9 9 9 9 9 nan
nan 7 15 9 9 15 12 9 8 1 7 11 7 14 21 12 6 6 14 13 13 11 8 8 8 7 7 7 8 8 6 9 8 7 9 9 8 8 9 9 9 10 10 nan
nan 14 7 9 14 19 16 9 6 4 13 10 8 19 12 8 6 9 13 10 17 10 10 8 8 8 8 7 8 8 8 8 8 9 9 9 9 8 9 9 8 9 9 nan
nan 15 15 10 6 1 10 14 8 6 3 12 11 19 9 5 9 7 8 14 15 12 8 7 9 8 8 8 8 7 10 11 8 10 10 9 10 11 10 10 9 9 9 nan
nan 6 6 7 7 9 11 10 12 8 6 6 15 14 12 4 7 5 5 11 12 10 9 10 8 9 8 7 7 9 10 9 11 8 9 9 9 9 9 9 9 9 10 nan
nan 10 9 8 9 11 13 12 13 17 13 6 11 13 20 8 7 12 7 7 10 12 8 9 8 9 8 7 6 10 11 9 9 8 8 9 9 9 9 9 9 8 9 nan
nan 14 10 9 8 9 14 13 9 10 14 12 10 9 15 26 13 9 5 7 13 9 6 8 8 7 8 8 9 12 8 8 10 9 8 9 9 9 9 9 8 8 8 nan
nan 13 14 13 10 11 8 7 11 11 7 7 9 13 32 32 11 3 12 12 11 7 11 10 7 8 8 8 10 9 9 10 9 8 9 9 9 9 8 9 8 7 9 nan
nan 7 13 13 11 8 9 13 12 7 10 16 9 10 20 16 7 14 19 13 13 9 9 8 9 9 9 8 8 8 9 9 8 8 8 9 9 9 9 9 8 7 8 nan
nan 10 4 5 11 11 8 6 20 21 4 10 29 23 8 -2 2 13 11 9 8 13 10 11 11 8 10 9 9 8 9 8 9 10 10 10 10 10 9 8 7 8 8 nan
nan 18 11 10 10 1 5 14 21 18 7 1 17 25 19 13 26 27 8 10 15 14 7 8 9 10 11 9 8 6 8 10 10 10 11 11 11 10 9 7 7 9 8 nan
nan 11 7 18 12 4 6 20 12 5 8 7 9 18 16 21 27 21 15 17 25 11 9 9 11 12 9 8 7 8 9 11 10 10 10 10 8 8 9 8 7 9 9 nan
nan 8 10 12 12 7 11 10 2 12 13 9 7 18 15 14 8 11 11 8 7 9 17 12 11 9 8 9 9 9 11 11 9 9 10 9 8 9 10 9 8 9 9 nan
nan 11 10 3 5 7 16 5 7 9 7 9 22 20 5 7 10 15 8 5 5 16 9 9 10 8 9 10 11 10 11 8 9 9 9 9 9 11 9 7 9 10 10 nan
nan 12 12 8 -0 6 7 8 4 6 8 6 23 25 11 10 12 6 10 11 13 14 10 11 8 9 9 11 12 9 8 9 9 10 9 9 9 10 9 10 9 8 12 nan
nan nan nan nan nan nan nan nan nan nan nan nan nan nan nan nan nan nan nan nan nan nan nan nan nan nan nan nan nan nan nan nan nan nan nan nan nan nan nan nan nan nan nan nan
CAPE
0 0 0 0 0 0 0 0 41 7 50 223 360 0 65 965 264 544 535 528 492 398 219 239 248 498 492 264 803 570 1317 972 55 0 0 296 907 1099 1245 782 296 215 339 223
0 0 0 0 0 7 12 52 6 178 187 144 221 0 0 505 136 418 408 480 442 395 356 361 211 509 230 595 753 645 838 1173 852 602 966 1240 1231 1388 1387 1140 1361 434 674 559
0 0 0 0 0 0 18 42 43 79 74 45 248 140 0 0 6 276 409 373 385 364 470 431 474 347 130 0 10 267 347 1213 1681 1399 1453 1267 1169 1271 1036 1302 1295 1253 1676 1667
0 0 0 0 0 0 0 4 41 138 25 69 62 168 126 158 392 895 247 299 356 401 501 457 547 420 187 112 361 27 12 37 1841 1662 505 588 556 739 824 1109 700 1274 1612 1873
0 0 0 0 0 0 0 1 5 17 22 6 2 167 98 30 4 100 0 147 418 497 565 815 740 497 358 175 92 0 23 109 1319 1169 1032 1131 873 284 580 626 267 240 1453 796
0 0 0 0 0 0 0 0 0 0 0 0 86 83 82 140 193 125 1 1 54 124 646 656 647 93 17 58 19 113 178 468 1358 915 635 429 323 408 393 96 226 843 599 206
0 0 0 0 0 0 0 0 0 0 0 0 87 161 101 181 295 51 2 50 115 3 414 649 559 537 348 295 504 825 2007 2000 1111 238 513 102 0 1220 849 945 530 454 386 0
0 0 0 0 0 0 0 0 0 0 0 13 164 64 132 104 110 51 63 1 207 31 552 475 439 383 1431 2008 2302 2234 1935 1515 1092 918 1008 857 734 717 360 222 25 0 0 0
0 0 0 0 0 0 0 0 0 0 0 0 50 58 27 129 212 191 34 63 121 608 750 623 511 693 1652 2132 2024 1751 1711 1265 1065 1225 882 772 530 372 0 0 0 0 0 0
0 0 0 0 0 0 0 0 0 0 0 0 0 62 88 187 92 12 0 508 221 1184 1049 918 1060 1899 1994 2113 1857 1550 1404 1359 1250 1040 751 438 197 0 0 0 0 0 0 0
0 0 0 0 0 0 0 0 0 0 0 0 0 32 213 82 11 0 0 1148 1311 1507 1482 1685 1878 1646 1653 1588 1350 1286 1256 1079 728 591 478 152 0 0 0 0 0 0 0 0
0 0 0 0 0 0 0 0 0 0 0 0 0 21 282 25 24 4 176 1396 1621 1897 1830 1697 1643 1669 1391 1315 1138 977 749 620 376 127 2 0 0 0 0 0 0 0 0 0
0 0 0 0 0 0 0 0 0 0 0 0 0 238 355 87 155 237 209 1452 1779 1713 1644 1574 1609 1497 1253 1048 862 613 547 229 73 5 0 0 0 0 0 0 0 0 0 0
0 0 0 0 0 0 0 0 0 0 0 0 0 421 449 77 79 36 258 1937 1812 1580 1664 1578 1458 1499 1085 832 606 481 275 76 25 0 0 0 0 0 0 0 0 0 0 0
0 0 0 0 0 0 0 0 0 0 0 0 0 342 264 42 42 54 292 904 1789 1674 1587 1465 1516 1117 738 575 410 445 111 0 0 0 0 0 0 0 0 0 0 0 0 0
0 0 0 0 0 0 0 0 0 0 0 0 0 0 366 76 127 546 1023 996 1787 1908 1554 1490 1252 858 613 528 495 161 0 0 0 0 0 0 0 0 0 0 0 0 0 0
13 0 0 0 0 0 0 0 0 0 0 0 0 0 0 369 354 339 133 89 1722 1877 1450 1365 1081 849 625 698 321 0 0 0 0 0 0 0 0 0 0 0 0 0 0 0
1 5 66 0 0 0 0 0 0 0 0 0 0 0 0 965 559 130 2 1336 1720 1455 1322 1347 1040 869 671 486 49 0 0 0 0 0 0 0 0 0 0 0 0 0 0 0
1 0 0 17 19 0 0 0 0 0 0 0 0 0 1031 1559 1813 1191 1742 1678 1467 1235 1378 1259 966 724 662 243 1 0 0 0 0 0 0 0 0 0 0 0 0 0 0 0
23 0 0 2 94 10 28 100 57 2 0 548 14 0 798 1416 1583 1215 914 1245 1556 1537 1238 1160 856 733 465 38 0 0 0 0 0 0 0 0 0 0 0 0 0 0 0 0
119 182 46 26 119 34 53 314 440 504 394 584 511 469 0 1054 1165 1028 0 179 1659 1397 1141 960 892 589 52 0 0 0 0 0 0 0 0 0 0 0 0 0 0 0 0 0
239 136 37 199 63 3 93 473 984 769 590 729 394 1228 797 1523 755 266 820 1335 1216 1080 1058 1089 351 50 0 0 0 0 0 0 0 0 0 0 0 0 0 0 0 0 0 0
221 241 104 347 403 323 304 25 123 339 387 588 338 1280 177 462 46 1170 1450 346 987 1225 1001 289 126 26 0 0 0 0 0 0 0 0 0 0 0 0 0 0 0 0 0 3
155 53 37 154 312 176 117 23 0 0 6 89 461 624 0 0 0 15 215 335 665 516 185 131 53 32 0 0 0 0 0 0 0 0 0 0 0 0 0 0 0 3 0 0
221 217 97 42 65 58 185 8 0 0 0 300 385 667 283 88 84 166 322 1339 898 548 295 109 59 9 0 0 0 0 0 0 0 0 0 0 0 0 0 0 0 0 0 0
128 181 143 95 0 10 118 96 0 0 0 6 128 202 246 794 1143 1676 1239 999 774 522 333 159 25 0 0 0 0 0 0 0 0 0 0 0 0 0 0 0 0 0 0 0